sat.trackr.live / text

‹ back to catalog

STARLINK-30859

NORAD 58371 · 2023-177W

PAYLOAD ACTIVE UNKNOWN

§ Identity

Operator
Country
US
Launch date
2023-11-18
Launch site
AFETR
Launch vehicle
Mass (kg)
RCS (m²)

Purposes: comms

External: N2YO · Heavens-Above · Gunter

§ Orbital elements

Epoch: 2026-05-25T01:32:27.629088Z

Period
94.27 min
Inclination
42.9977°
Eccentricity
0.0000672
Mean motion
15.27574655 rev/d
Perigee alt
482.6 km
Apogee alt
483.5 km
Semi-major
6,861.2 km
B*
1.4346e-4
RAAN
279.6135°
Arg perigee
339.3147°
Mean anomaly
20.7677°
Rev number
13,991

§ Raw data

STARLINK-308591 58371U 23177W   26145.06420867  .00003687  00000+0  14346-3 0  99992 58371  42.9977 279.6135 0000672 339.3147  20.7677 15.27574655139911

JSON: /api/v1/satellites/58371 · /tle

For live sub-satellite position, see the globe view (requires WebGL).

§ Visibility from observer

Set your observer location to see the next 7 days of passes ≥ 10°. The values pass through the URL so the page stays shareable.

No JS? Fill the form by hand. The geolocation button needs JavaScript.